009  
ASUS43 KGLD 190808  
RWRGLD  
 
GOODLAND FORECAST AREA HOURLY WEATHER ROUNDUP  
NATIONAL WEATHER SERVICE GOODLAND KS  
200 AM MDT THU SEP 19 2019  
   
..OFFICIAL OBSERVATIONS
 
 
 
CITY SKY/WX TMP DP RH WIND PRES REMARKS
 
GOODLAND KS CLEAR 56 55 97 S5 29.99F  
HILL CITY KS CLEAR 68 62 81 SW7 29.95S  
IMPERIAL NEB MOCLDY 59 52 77 CALM 29.99F  
MCCOOK NEB CLEAR 57 55 93 W5 29.95F  
AKRON CO PTCLDY 60 51 72 SE10 30.04S  
BURLINGTON CO CLEAR 60 56 86 SE6 30.02F  
LIMON CO CLEAR 47 41 80 CALM 30.07F  

 
   
..UNOFFICIAL OBSERVATIONS
 
 
 
CITY SKY/WX TMP DP RH WIND PRES REMARKS
 
COLBY KS CLEAR 57 55 94 CALM 29.99F  
KIT CARSON CO N/A 62 56 81 MISG N/A  
YUMA CO FAIR 55 50 82 E7 30.03  

 
 
 
CLICK HERE TO GO TO PREVIOUS BULLETINS.

The Nexlab KS Page
The Nexlab CO Page
The Nexlab NE Page Main Text Page